Regional Weather Roundup
Issued by NWS

Home | Current Version | Previous Version | Text Only | Print | Product List | Glossary On
Versions: 1 2 3 4 5 6 7 8 9 10 11 12 13 14 15 16 17 18 19 20 21 22 23 24 25 26 27 28 29 30 31 32 33 34 35 36 37 38 39 40 41 42 43 44 45 46 47 48 49 50
978
ASUS43 KFSD 240902
RWRSD

WEATHER ROUNDUP FOR SOUTH DAKOTA
NATIONAL WEATHER SERVICE SIOUX FALLS SD
400 AM CDT FRI MAY 24 2019

NOTE: "FAIR" INDICATES FEW OR NO CLOUDS BELOW 12,000 FEET WITH NO
SIGNIFICANT WEATHER AND/OR OBSTRUCTIONS TO VISIBILITY.


SDZ001>005-009-010-012>017-241000-
NORTHWEST AND NORTH CENTRAL SOUTH DAKOTA

CITY           SKY/WX    TMP DP  RH WIND       PRES   REMARKS
FAITH            N/A     46  46 100 SE15      29.80F
MOBRIDGE       LGT RAIN  50  46  86 SE14      29.83F
$$

SDZ012>016-024>037-041>051-057-063-072>074-241000-
SOUTHWEST AND SOUTH CENTRAL SOUTH DAKOTA

CITY           SKY/WX    TMP DP  RH WIND       PRES   REMARKS
RAPID CTY ARPT CLOUDY    46  44  93 S13       29.78F
PIERRE         LGT RAIN  49  48  97 SE13      29.85F
CUSTER         CLOUDY    38  36  92 SW10G20   29.78F
ELLSWORTH AFB  CLOUDY    46  46 100 S10       29.77F
PHILIP         CLOUDY    49  49 100 SE9       29.82F
PINE RIDGE     MOCLDY    47  43  86 S9        29.83F
SPEARFISH      CLOUDY    37  37 100 SE5       29.74F
WINNER         LGT RAIN  50  48  93 CALM      29.88F FOG
$$

SDZ004>011-016>023-039-040-241000-
NORTHEAST SOUTH DAKOTA

CITY           SKY/WX    TMP DP  RH WIND       PRES   REMARKS
ABERDEEN       LGT RAIN  49  46  90 E8        29.91F
WATERTOWN      LGT RAIN  48  46  93 E10G17    29.89F
BROOKINGS      LGT RAIN  50  48  93 E10       29.92F
SISSETON         N/A     49  47  93 SE10      29.96F
$$

SDZ017-020-022-023-036>040-048>070-241000-
SOUTHEAST SOUTH DAKOTA

CITY           SKY/WX    TMP DP  RH WIND       PRES   REMARKS
SIOUX FALLS    LGT RAIN  53  51  93 E9        29.90F
HURON          CLOUDY    51  49  92 E7        29.89F
CHAMBERLAIN    DRIZZLE   51  51 100 SE5       29.88F
MADISON        LGT RAIN  48  48 100 E14       29.91S
MITCHELL       LGT RAIN  52  50  93 E14       29.87F FOG
YANKTON        TSTM      53  52  96 E14       29.87F
$$

ABBREVIATIONS USED IN REMARKS
   TC - TEMPERATURE IN CELSIUS
  WCI - WIND CHILL INDEX
   HX - HEAT INDEX
  VSB - VISIBILITY





USA.gov is the U.S. government's official web portal to all federal, state and local government web resources and services.